User: anonymous   Login
Location: Unspecified
(0.0000°N, 0.0000°E)
Time: 10:43:37
(UTC+00:00)
Language:

Tiangong 2 - Orbit

View from above orbital plane
View from above orbital plane
View from above satellite
View from above satellite

Ground track
Ground track

The orbit data is extracted from the following two-line orbital elements,

1 41765U 16057A   19143.11871068  .00002821  00000-0  36351-4 0  9997
2 41765  42.7818 116.3804 0006354  87.5336  13.1368 15.61572467153126
Epoch (UTC): 23 May 2019 02:50:56
Eccentricity: 0.0006354
inclination: 42.7818°
perigee height: 379 km
apogee height: 387 km
right ascension of ascending node: 116.3804°
argument of perigee: 87.5336°
revolutions per day: 15.61572467
mean anomaly at epoch: 13.1368°
orbit number at epoch: 15312

The dashed part of the orbit path shows where the satellite is in the earth's shadow,  

DLR